Location: Ballingbuur
(53.0000°N, 5.7667°E)
Time: 21:21:38
(UTC+00:00)

ATLAS 2AS CENTAUR R/B - Pass Details

Date: 29 November 2020
Orbit: 943 x 1268 km, 63.7° (Epoch: 22 January)

Event Time Altitude Azimuth Distance (km) Brightness Sun altitude
Exits shadow 04:15:38 14° 202° (SSW) 2,970 4.8 -27.4°
Maximum altitude 04:22:32 61° 126° (SE) 1,421 3.4 -26.4°
Drops below altitude 10° 04:30:11 10° 49° (NE) 3,207 5.8 -25.3°
Sets 04:32:57 0° 46° (NE) 4,144 6.4 -24.8°
